This is the latest recevied weather packets stored in our database for station/object KB1JLI. If no packets are shown the sender has not sent any weather packets the latest 10 day(s).
| Time | Temp. | Humidity | Pressure | Rain* | Wind** | Luminosity | Snow |
|---|---|---|---|---|---|---|---|
| 1777906509 | 18.33° C | 36% | 1008.7 hPa | 0 mm | - | 524 W/m² | - |
| 1777906204 | 19.44° C | 35% | 1008.9 hPa | 0 mm | - | 624 W/m² | - |
| 1777905901 | 19.44° C | 35% | 1009.1 hPa | 0 mm | - | 611 W/m² | - |
| 1777905598 | 18.89° C | 38% | 1008.8 hPa | 0 mm | - | 604 W/m² | - |
| 1777905295 | 18.89° C | 37% | 1009.2 hPa | 0 mm | - | 594 W/m² | - |
| 1777904992 | 17.78° C | 38% | 1008.9 hPa | 0 mm | - | 582 W/m² | - |
| 1777904690 | 18.33° C | 37% | 1009.1 hPa | 0 mm | - | 568 W/m² | - |
| 1777904386 | 18.33° C | 39% | 1009.2 hPa | 0 mm | - | 569 W/m² | - |
| 1777904083 | 17.78° C | 38% | 1009.2 hPa | 0 mm | - | 557 W/m² | - |
| 1777903780 | 17.78° C | 38% | 1009.3 hPa | 0 mm | - | 547 W/m² | - |
| 1777903476 | 17.78° C | 38% | 1009.2 hPa | 0 mm | - | 538 W/m² | - |
| 1777903173 | 17.78° C | 38% | 1009.4 hPa | 0 mm | - | 525 W/m² | - |
| 1777902869 | 16.67° C | 39% | 1009.5 hPa | 0 mm | - | 521 W/m² | - |
| 1777902566 | 17.22° C | 40% | 1009.5 hPa | 0 mm | - | 506 W/m² | - |
| 1777902262 | 16.67° C | 39% | 1009.5 hPa | 0 mm | - | 494 W/m² | - |
| 1777901961 | 16.67° C | 39% | 1009.4 hPa | 0 mm | - | 482 W/m² | - |
| 1777901659 | 16.67° C | 41% | 1009.6 hPa | 0 mm | - | 472 W/m² | - |
| 1777901355 | 16.11° C | 40% | 1009.7 hPa | 0 mm | - | 462 W/m² | - |
| 1777901053 | 16.67° C | 40% | 1009.8 hPa | 0 mm | - | 448 W/m² | - |
| 1777900750 | 16.11° C | 42% | 1009.7 hPa | 0 mm | - | 436 W/m² | - |
| 1777900447 | 16.11° C | 41% | 1009.8 hPa | 0 mm | - | 426 W/m² | - |
| 1777900144 | 16.11° C | 41% | 1009.8 hPa | 0 mm | - | 409 W/m² | - |
| 1777899841 | 16.11° C | 42% | 1009.9 hPa | 0 mm | - | 395 W/m² | - |
| 1777899537 | 15° C | 42% | 1010 hPa | 0 mm | - | 387 W/m² | - |
| 1777899235 | 15° C | 43% | 1010.1 hPa | 0 mm | - | 373 W/m² | - |
* Rain latest hour (hover to see other rain measurements)
** Current wind speed in m/s (hover to see current wind gust speed)